www.pogodaiklimat.ru

Погода и климат >> Архив погоды >> Антарктида >> Butler Island


ПОГОДА в Butler Island

  • Прогноз погоды в Butler Island
  • Монитор погоды в Butler Island
  • Климат города

АРХИВ ПОГОДЫ в Butler Island

Время (UTC), дата Ветер
(напр.,м/с)
 
Видим.   Явления Облачность Т
(С)
Тd
(С)
f
(%)
Тe
(С)
Тes
(С)
Комфортность P
(гПа)
Po
(гПа)
Тmin
(С)
Tmax
(С)
R
(мм)
R24
(мм)
S
(см)
18 17.09 Ю 7 н/о н/о -25.0 -27.6 79 -38 -38 опасность
обморожения
993.6 978.5
21 17.09 ЮЗ 5 н/о н/о -23.7 -26.4 78 -35 -35 опасность
обморожения
993.8 978.8
00 18.09 Ю 5 н/о н/о -23.8 -26.5 78 -35 -35 опасность
обморожения
993.8 978.8
03 18.09 ЮЗ 4 н/о н/о -25.0 -27.9 77 -35 -35 опасность
обморожения
993.5 978.4
06 18.09 н/о н/о -24.1 -26.9 78 993.1 978.1
09 18.09 штиль 0 н/о н/о -24.0 -26.9 77 -24 -24 992.9 977.9
12 18.09 ЮЗ 2 н/о н/о -25.6 -28.6 76 -32 -32 опасность
обморожения
992.5 977.4
15 18.09 СЗ 8 н/о н/о -25.8 -28.8 76 -40 -40 опасность
обморожения
991.1 976.0
18 18.09 СЗ 6 н/о н/о -21.9 -26.1 69 -33 -33 опасность
обморожения
990.6 975.7
21 18.09 З 5 н/о н/о -23.1 -24.8 86 -31 -31 опасность
обморожения
990.3 975.7
00 19.09 Ю 7 н/о н/о -25.3 -27.9 79 -38 -38 опасность
обморожения
992.2 977.1
03 19.09 Ю 4 н/о н/о -24.1 -26.5 80 -33 -33 опасность
обморожения
994.6 979.6
06 19.09 н/о н/о -21.6 -25.4 71 996.8 981.9
09 19.09 ЮВ 2 н/о н/о -22.9 -26.0 76 -28 -28 998.5 983.5
12 19.09 штиль 0 н/о н/о -23.4 -25.6 82 -23 -23 1000.9 985.8
15 19.09 ЮВ 2 н/о н/о -22.1 -25.3 75 -28 -28 1001.3 986.3
18 19.09 С 5 н/о н/о -23.0 -24.9 84 -34 -34 опасность
обморожения
1000.2 985.1
21 19.09 СЗ 8 н/о н/о -23.8 -26.1 81 -37 -37 опасность
обморожения
998.7 983.6
00 20.09 СЗ 9 н/о н/о -21.3 -24.8 73 -35 -35 опасность
обморожения
996.9 982.0
03 20.09 СЗ 6 н/о н/о -15.0 -18.0 78 -24 -24 998.4 983.8
06 20.09 З 6 н/о н/о -6.6 -16.3 46 -14 -14 1001.1 986.9
09 20.09 Ю 6 н/о н/о -11.3 -16.7 64 -20 -20 1004.7 990.2
12 20.09 З 3 н/о н/о -12.7 -17.3 68 -18 -18 1008.2 993.6
15 20.09 штиль 0 н/о н/о -8.1 -16.5 51 -8 -8 1010.3 995.9
18 20.09 З 2 н/о н/о -11.1 -16.6 64 -16 -16 1010.8 996.3
21 20.09 СЗ 5 н/о н/о -14.3 -18.0 73 -23 -23 1010.4 995.7
00 21.09 СЗ 4 н/о н/о -15.9 -18.7 79 -23 -23 1010.3 995.5
03 21.09 СЗ 4 н/о н/о -17.7 -20.7 77 -26 -26 1009.6 994.7
06 21.09 СЗ 5 н/о н/о -21.1 -22.9 85 -31 -31 опасность
обморожения
1008.0 992.9
09 21.09 СЗ 4 н/о н/о -21.3 -23.2 85 -30 -30 1006.1 991.0
12 21.09 СЗ 6 н/о н/о -21.1 -23.3 82 -32 -32 опасность
обморожения
1004.2 989.2
15 21.09 С 10 н/о н/о -19.4 -21.5 83 -33 -33 опасность
обморожения
1001.9 987.0
18 21.09 С 8 н/о н/о -19.4 -21.5 83 -32 -32 опасность
обморожения
999.7 984.9
21 21.09 СЗ 7 н/о н/о -18.0 -20.9 78 -29 -29 998.3 983.6
00 22.09 СЗ 5 н/о н/о -15.4 -19.5 71 -24 -24 997.7 983.1
03 22.09 ЮЗ 5 н/о н/о -6.6 -16.6 45 -13 -13 997.8 983.7
06 22.09 Ю 3 н/о н/о -4.9 -14.1 48 -9 -9 998.2 984.2
09 22.09 Ю 7 н/о н/о -12.9 -14.7 86 -22 -22 999.8 985.3
12 22.09 Ю 6 н/о н/о -13.2 -14.8 88 -22 -22 999.8 985.3
15 22.09 Ю 2 н/о н/о -13.6 -15.1 88 -18 -18 999.6 985.1
18 22.09 н/о н/о -13.1 -14.9 86 998.9 984.4
21 22.09 Ю 4 н/о н/о -14.6 -15.6 92 -22 -22 998.7 984.1
00 23.09 Ю 5 н/о н/о -16.5 -18.0 88 -26 -26 999.0 984.3
03 23.09 Ю 5 н/о н/о -16.7 -18.2 88 -26 -26 998.3 983.6
06 23.09 Ю 3 н/о н/о -17.2 -18.8 87 -24 -24 997.1 982.4
09 23.09 Ю 2 н/о н/о -17.1 -18.7 87 -23 -23 996.4 981.7
12 23.09 Ю 1 н/о н/о -16.3 -17.9 87 -19 -19 996.4 981.8
15 23.09 н/о н/о -15.1 -16.7 88 996.6 982.0
18 23.09 Ю 4 н/о н/о -17.3 -19.2 85 -26 -26 998.4 983.7
21 23.09 Ю 2 н/о н/о -17.4 -19.1 87 -23 -23 999.9 985.2
00 24.09 штиль 0 н/о н/о -19.0 -20.6 87 -19 -19 1001.5 986.6
03 24.09 Ю 2 н/о н/о -21.7 -23.8 83 -28 -28 1002.4 987.4
06 24.09 н/о н/о -20.3 -22.1 85 1002.8 987.9
09 24.09 штиль 0 н/о н/о -20.9 -22.9 84 -21 -21 1004.7 989.7

 

Местоположение метеостанции Butler Island (Антарктида): широта -72.20 долгота -60.17 высота над уровнем моря 205 м.

В архиве по умолчанию представлена погода в Butler Island за последнюю неделю. Архивные данные за месяц целиком и за предыдущие месяцы, начиная с января 2011 года, Вы можете получить, выбрав интересующий диапазон дат из раскрывающегося списка и нажав кнопку "Ввод!".


*Определитесь, кто Вы:
робот инопланетянин человек

Внимание! Время в таблицах - всемирное. Для получения местного времени необходимо прибавить поправку, которая в Butler Island равна 0 ч.

Смотрите также архив погоды в соседних городах и на ближайших метеорологических станциях:

Погода в Fossil Bluff (Антарктида) (300 км)
Погода в Limbert Aws (Антарктида) (409 км)
Погода в Sky Blue (Антарктида) (458 км)
Погода в San Martin Base (Антарктида) (525 км)
Погода в Larsen Ice Shelf (Антарктида) (580 км)
Погода в Rothera (Антарктида) (598 км)
Погода в Vernadsky (Антарктида) (790 км)
Погода в Palmer Station (Антарктида) (842 км)
Погода в Marambio Base (Антарктида) (898 км)
Погода в Base Belgrano Ii (Антарктида) (953 км)

Пояснения к столбцам:

Ветер - указаны скорость ветра в м/с - средняя за 10 мин, порывы в срок и между сроками (в фигурных скобках) и направление, откуда дует ветер: С - северный, СВ - северо-восточный, В - восточный, ЮВ - юго-восточный, Ю - южный, ЮЗ - юго-западный, З - западный, СЗ - северо-западный.
Видимость - горизонтальная дальность видимости в метрах или километрах. При видимости от 1 до 10 км при отсутствии осадков обычно наблюдается дымка, при ухудшении видимости до 1 км и менее - туман. В сухую погоду видимость может ухудшаться дымом, пылью или мглою.
Явления - указаны атмосферные явления, наблюдавшиеся в срок или в последний час перед сроком; фигурными скобками обозначены явления, наблюдавшиеся между сроками (за 1-3 часа до срока); квадратными скобками обозначены град или гололедные отложения с указанием их диаметра в мм.
Облачность - указаны через наклонную черту общая и нижняя облачность в баллах и высота нижней границы облаков в метрах; квадратными скобками обозначены формы облаков: Ci - перистые, Cs - перисто-слоистые, Cc - перисто-кучевые, Ac - высококучевые, As - высокослоистые, Sc - слоисто-кучевые, Ns - слоисто-дождевые, Cu - кучевые, Cb - кучево-дождевые. Подробнее классификацию облаков см. в Атласе облаков (PDF).
T - Температура воздуха - температура, измеренная на высоте 2 м над землей.
Td - Температура точки росы - температура, при понижении до которой содержащийся в воздухе водяной пар достигнет насыщения.
f - Относительная влажность воздуха - влажноcть воздуха, измеренная на высоте 2 м над землей.
Te - Эффективная температура - температура, которую ощущает одетый по сезону человек в тени. Характеристика душности погоды. При расчете учитывается влияние влажности воздуха и скорости ветра на теплоощущения человека.
Tes - Эффективная температура на солнце - температура, которую ощущает человек, с поправкой на солнечный нагрев. Характеристика знойности погоды. Зависит от высоты солнца над горизонтом, облачности и скорости ветра. Ночью, в пасмурную погоду, а также при ветре 12 м/с и более поправка равна нулю.
P - Атмосферное давление - приведенное к уровню моря атмосферное давление.
Po - Атмосферное давление - измеренное на уровне метеостанции атмосферное давление.
Tmin - Минимальная температура - минимум температуры воздуха на высоте 2 м над землей.
Tmax - Максимальная температура - максимум температуры воздуха на высоте 2 м над землей.
R - Количество осадков - Количество выпавших осадков за период времени, мм. При наведении курсора мыши на число - период времени, за который выпало указанное количество осадков.
R24 - Количество осадков - Количество выпавших осадков за 24 часа, мм.
S - Снежный покров - Высота снежного покрова, см. При наведении курсора мыши на число - состояние снежного покрова и степень покрытия местности в баллах.